TimeEDT,TemperatureF,Dew PointF,Humidity,Sea Level PressureIn,VisibilityMPH,Wind Direction,Wind SpeedMPH,Gust SpeedMPH,PrecipitationIn,Events,Conditions,WindDirDegrees,DateUTC
12:53 AM,57.0,55.0,93,30.11,10.0,Calm,Calm,-,N/A,,Clear,0,2013-10-10 04:53:00
1:53 AM,57.0,55.0,93,30.11,10.0,Calm,Calm,-,N/A,,Clear,0,2013-10-10 05:53:00
2:53 AM,55.0,54.0,96,30.10,10.0,Calm,Calm,-,N/A,,Clear,0,2013-10-10 06:53:00
3:53 AM,54.0,53.1,97,30.10,10.0,Calm,Calm,-,N/A,,Clear,0,2013-10-10 07:53:00
4:37 AM,53.6,51.8,94,30.13,9.0,Calm,Calm,-,N/A,,Scattered Clouds,0,2013-10-10 08:37:00
4:53 AM,54.0,53.1,97,30.12,4.0,Calm,Calm,-,N/A,,Scattered Clouds,0,2013-10-10 08:53:00
5:20 AM,53.6,51.8,94,30.14,0.5,Calm,Calm,-,N/A,Fog,Fog,0,2013-10-10 09:20:00
5:22 AM,53.6,51.8,94,30.14,0.1,Calm,Calm,-,N/A,Fog,Fog,0,2013-10-10 09:22:00
5:30 AM,53.6,51.8,94,30.14,1.0,Calm,Calm,-,N/A,,Mostly Cloudy,0,2013-10-10 09:30:00
5:38 AM,51.8,51.8,100,30.14,0.8,Calm,Calm,-,N/A,,Mostly Cloudy,0,2013-10-10 09:38:00
5:53 AM,52.0,51.1,97,30.12,0.5,Calm,Calm,-,N/A,Fog,Fog,0,2013-10-10 09:53:00
5:56 AM,51.8,51.8,100,30.14,0.1,Calm,Calm,-,N/A,Fog,Fog,0,2013-10-10 09:56:00
6:04 AM,51.8,51.8,100,30.14,0.8,East,3.5,-,N/A,,Overcast,80,2013-10-10 10:04:00
6:37 AM,53.6,53.6,100,30.15,0.2,Calm,Calm,-,N/A,Fog,Fog,0,2013-10-10 10:37:00
6:49 AM,53.6,53.6,100,30.15,0.5,Calm,Calm,-,N/A,Fog,Fog,0,2013-10-10 10:49:00
6:50 AM,53.1,53.1,100,30.13,0.5,Calm,Calm,-,N/A,Fog,Fog,0,2013-10-10 10:50:00
6:59 AM,53.6,53.6,100,30.15,0.2,Calm,Calm,-,N/A,Fog,Fog,0,2013-10-10 10:59:00
7:53 AM,53.1,53.1,100,30.14,0.2,Calm,Calm,-,N/A,Fog,Fog,0,2013-10-10 11:53:00
8:53 AM,53.1,53.1,100,30.16,0.2,ENE,3.5,-,N/A,Fog,Fog,70,2013-10-10 12:53:00
9:53 AM,54.0,54.0,100,30.17,0.5,Calm,Calm,-,N/A,Fog,Fog,0,2013-10-10 13:53:00
10:13 AM,55.4,55.4,100,30.18,0.5,Calm,Calm,-,N/A,Fog,Fog,0,2013-10-10 14:13:00
10:28 AM,55.4,55.4,100,30.18,1.0,Calm,Calm,-,N/A,,Overcast,0,2013-10-10 14:28:00
10:53 AM,57.0,55.9,96,30.17,1.8,Calm,Calm,-,N/A,,Overcast,0,2013-10-10 14:53:00
10:55 AM,57.2,55.4,94,30.18,2.0,Calm,Calm,-,N/A,,Overcast,0,2013-10-10 14:55:00
11:07 AM,57.2,55.4,94,30.18,3.0,Calm,Calm,-,N/A,,Mostly Cloudy,0,2013-10-10 15:07:00
11:20 AM,60.8,57.2,88,30.18,4.0,Calm,Calm,-,N/A,,Scattered Clouds,0,2013-10-10 15:20:00
11:53 AM,63.0,55.9,78,30.16,7.0,Calm,Calm,-,N/A,,Scattered Clouds,0,2013-10-10 15:53:00
12:53 PM,69.1,55.0,61,30.14,10.0,NNE,4.6,-,N/A,,Scattered Clouds,30,2013-10-10 16:53:00
1:53 PM,72.0,52.0,49,30.11,10.0,ENE,5.8,-,N/A,,Scattered Clouds,60,2013-10-10 17:53:00
2:53 PM,73.0,51.1,46,30.08,10.0,ENE,5.8,-,N/A,,Scattered Clouds,70,2013-10-10 18:53:00
3:53 PM,73.9,51.1,45,30.07,10.0,NNW,8.1,-,N/A,,Scattered Clouds,340,2013-10-10 19:53:00
4:53 PM,75.0,50.0,41,30.06,10.0,East,5.8,-,N/A,,Partly Cloudy,80,2013-10-10 20:53:00
5:53 PM,73.0,51.1,46,30.05,10.0,NE,3.5,-,N/A,,Partly Cloudy,50,2013-10-10 21:53:00
6:53 PM,71.1,50.0,47,30.05,10.0,NNE,3.5,-,N/A,,Partly Cloudy,20,2013-10-10 22:53:00
7:53 PM,66.0,50.0,56,30.05,10.0,NNE,3.5,-,N/A,,Clear,30,2013-10-10 23:53:00
8:53 PM,63.0,54.0,72,30.05,10.0,NE,3.5,-,N/A,,Clear,50,2013-10-11 00:53:00
9:53 PM,62.1,53.1,72,30.06,10.0,Calm,Calm,-,N/A,,Clear,0,2013-10-11 01:53:00
10:53 PM,59.0,53.1,81,30.05,10.0,Calm,Calm,-,N/A,,Clear,0,2013-10-11 02:53:00
11:53 PM,59.0,53.1,81,30.04,10.0,Calm,Calm,-,N/A,,Partly Cloudy,0,2013-10-11 03:53:00